This is the latest recevied weather packets stored in our database for station/object JR5YHL-13. If no packets are shown the sender has not sent any weather packets the latest 10 day(s).
| Time | Temp. | Humidity | Pressure | Rain* | Wind** | Luminosity | Snow |
|---|---|---|---|---|---|---|---|
| 1778109229 | 20.56° C | 79% | 1014.7 hPa | 0 mm | - | - | - |
| 1778108631 | 20° C | 82% | 1015 hPa | 0 mm | - | - | - |
| 1778108034 | 19.44° C | 84% | 1015.2 hPa | 0 mm | - | - | - |
| 1778107436 | 18.89° C | 87% | 1015.2 hPa | 0 mm | - | - | - |
| 1778106838 | 18.89° C | 88% | 1015.2 hPa | 0 mm | - | - | - |
| 1778106241 | 18.33° C | 90% | 1015.3 hPa | 0 mm | - | - | - |
| 1778105643 | 18.33° C | 91% | 1015.2 hPa | 0 mm | - | - | - |
| 1778105045 | 18.33° C | 95% | 1015.3 hPa | 0 mm | - | - | - |
| 1778104448 | 17.78° C | 98% | 1015.4 hPa | 0 mm | - | - | - |
| 1778103850 | 17.22° C | 99% | 1015.3 hPa | 0 mm | - | - | - |
| 1778103252 | 16.67° C | 99% | 1015.1 hPa | 0 mm | - | - | - |
| 1778102655 | 16.67° C | 99% | 1015 hPa | 0 mm | - | - | - |
| 1778102057 | 16.11° C | 99% | 1014.9 hPa | 0 mm | - | - | - |
| 1778101460 | 16.11° C | 99% | 1015 hPa | 0 mm | - | - | - |
| 1778100862 | 15.56° C | 99% | 1015 hPa | 0 mm | - | - | - |
| 1778100264 | 15.56° C | 99% | 1015.1 hPa | 0 mm | - | - | - |
| 1778099667 | 15.56° C | 99% | 1015.2 hPa | 0 mm | - | - | - |
| 1778099069 | 15.56° C | 99% | 1015.1 hPa | 0 mm | - | - | - |
| 1778098472 | 15.56° C | 99% | 1015.1 hPa | 0 mm | - | - | - |
| 1778097874 | 15.56° C | 99% | 1015.1 hPa | 0 mm | - | - | - |
| 1778097277 | 15.56° C | 99% | 1015.2 hPa | 0 mm | - | - | - |
| 1778096680 | 15° C | 99% | 1015.4 hPa | 0 mm | - | - | - |
| 1778096082 | 15° C | 99% | 1015.6 hPa | 0 mm | - | - | - |
| 1778095484 | 15° C | 99% | 1015.6 hPa | 0 mm | - | - | - |
| 1778094887 | 15° C | 99% | 1015.6 hPa | 0 mm | - | - | - |
* Rain latest hour (hover to see other rain measurements)
** Current wind speed in m/s (hover to see current wind gust speed)